H1 CPF 2 NER 2023 1 9 9 009 01 glonass140 H2 1903001 9140 44299 2023 1 9 0 0 0 2023 1 12 23 45 0 900 1 1 0 0 0 1 H9 10 0 59953 0.00000 0 17407904.539 -16797224.238 -8107387.507 10 0 59953 900.00000 0 16630597.689 -15897915.212 -11020105.708 10 0 59953 1800.00000 0 15742661.489 -14648399.781 -13718796.133 10 0 59953 2700.00000 0 14802949.699 -13056843.489 -16150968.525 10 0 59953 3600.00000 0 13869193.989 -11144273.997 -18269282.895 10 0 59953 4500.00000 0 12995480.489 -8943954.760 -20032476.101 10 0 59953 5400.00000 0 12229895.779 -6500251.343 -21406171.445 10 0 59953 6300.00000 0 11612441.986 -3867035.969 -22363555.148 10 0 59953 7200.00000 0 11173309.425 -1105695.476 -22885906.069 10 0 59953 8100.00000 0 10931580.171 1717175.483 -22962968.006 10 0 59953 9000.00000 0 10894417.761 4532300.853 -22593156.816 10 0 59953 9900.00000 0 11056777.779 7270364.480 -21783597.879 10 0 59953 10800.00000 0 11401651.978 9864656.774 -20549992.645 10 0 59953 11700.00000 0 11900835.982 12253616.617 -18916316.392 10 0 59953 12600.00000 0 12516188.306 14383162.609 -16914352.691 10 0 59953 13500.00000 0 13201327.478 16208716.454 -14583073.353 10 0 59953 14400.00000 0 13903695.200 17696834.151 -11967875.861 10 0 59953 15300.00000 0 14566897.765 18826377.049 -9119693.323 10 0 59953 16200.00000 0 15133225.916 19589174.366 -6093994.734 10 0 59953 17100.00000 0 15546245.562 19990150.335 -2949695.653 10 0 59953 18000.00000 0 15753348.726 20046911.875 251998.491 10 0 59953 18900.00000 0 15708155.786 19788815.707 3448792.935 10 0 59953 19800.00000 0 15372666.511 19255555.925 6578523.565 10 0 59953 20700.00000 0 14719068.306 18495333.328 9580371.524 10 0 59953 21600.00000 0 13731124.832 17562685.416 12396048.133 10 0 59953 22500.00000 0 12405086.186 16516069.954 14970926.631 10 0 59953 23400.00000 0 10750082.297 15415305.069 17255098.620 10 0 59953 24300.00000 0 8787983.038 14318974.317 19204335.082 10 0 59953 25200.00000 0 6552730.939 13281906.051 20780934.032 10 0 59953 26100.00000 0 4089174.448 12352832.700 21954439.373 10 0 59953 27000.00000 0 1451450.157 11572327.468 22702218.271 10 0 59953 27900.00000 0 -1299019.095 10971103.928 23009887.190 10 0 59953 28800.00000 0 -4095827.734 10568748.506 22871579.545 10 0 59953 29700.00000 0 -6870098.014 10372937.685 22290050.850 10 0 59953 30600.00000 0 -9553094.869 10379171.528 21276620.067 10 0 59953 31500.00000 0 -12078838.034 10571033.807 19850948.639 10 0 59953 32400.00000 0 -14386604.794 10920967.227 18040661.473 10 0 59953 33300.00000 0 -16423221.142 11391531.068 15880816.783 10 0 59953 34200.00000 0 -18145047.575 11937088.577 13413234.394 10 0 59953 35100.00000 0 -19519578.313 12505853.667 10685694.589 10 0 59953 36000.00000 0 -20526588.310 13042211.396 7751021.981 10 0 59953 36900.00000 0 -21158780.885 13489215.169 4666071.231 10 0 59953 37800.00000 0 -21421909.350 13791155.910 1490633.353 10 0 59953 38700.00000 0 -21334367.683 13896095.128 -1713716.924 10 0 59953 39600.00000 0 -20926267.338 13758254.921 -4884810.762 10 0 59953 40500.00000 0 -20238038.766 13340163.610 -7961088.997 10 0 59953 41400.00000 0 -19318616.178 12614465.536 -10882796.782 10 0 59953 42300.00000 0 -18223281.647 11565317.472 -13593145.648 10 0 59953 43200.00000 0 -17011259.078 10189311.137 -16039420.197 10 0 59953 44100.00000 0 -15743159.247 8495881.094 -18174007.588 10 0 59953 45000.00000 0 -14478383.461 6507178.891 -19955329.347 10 0 59953 45900.00000 0 -13272595.252 4257416.585 -21348657.037 10 0 59953 46800.00000 0 -12175366.726 1791705.150 -22326795.533 10 0 59953 47700.00000 0 -11228098.906 -835565.441 -22870620.154 10 0 59953 48600.00000 0 -10462303.901 -3562738.390 -22969456.797 10 0 59953 49500.00000 0 -9898321.492 -6323211.821 -22621297.238 10 0 59953 50400.00000 0 -9544524.474 -9047974.133 -21832844.870 10 0 59953 51300.00000 0 -9397046.372 -11668247.893 -20619389.542 10 0 59953 52200.00000 0 -9440043.082 -14118132.403 -19004513.414 10 0 59953 53100.00000 0 -9646477.285 -16337134.713 -17019633.183 10 0 59953 54000.00000 0 -9979392.233 -18272483.509 -14703387.306 10 0 59953 54900.00000 0 -10393620.552 -19881129.135 -12100880.038 10 0 59953 55800.00000 0 -10837855.087 -21131346.146 -9262797.224 10 0 59953 56700.00000 0 -11256993.234 -22003871.546 -6244411.455 10 0 59953 57600.00000 0 -11594654.424 -22492531.565 -3104496.623 10 0 59953 58500.00000 0 -11795762.991 -22604331.510 95826.027 10 0 59953 59400.00000 0 -11809085.896 -22359006.133 3294286.855 10 0 59953 60300.00000 0 -11589616.803 -21788050.899 6428687.438 10 0 59953 61200.00000 0 -11100704.732 -20933276.564 9438116.009 10 0 59953 62100.00000 0 -10315836.685 -19844949.560 12264134.356 10 0 59953 63000.00000 0 -9219998.485 -18579597.980 14851912.676 10 0 59953 63900.00000 0 -7810556.332 -17197576.751 17151290.132 10 0 59953 64800.00000 0 -6097621.847 -15760495.186 19117740.938 10 0 59953 65700.00000 0 -4103885.244 -14328615.329 20713227.898 10 0 59953 66600.00000 0 -1863923.611 -12958330.124 21906927.832 10 0 59953 67500.00000 0 576987.063 -11699826.469 22675816.102 10 0 59953 68400.00000 0 3164507.011 -10595029.932 23005100.215 10 0 59953 69300.00000 0 5837247.534 -9675915.823 22888495.320 10 0 59953 70200.00000 0 8529082.810 -8963255.736 22328337.351 10 0 59953 71100.00000 0 11171663.961 -8465850.479 21335532.354 10 0 59953 72000.00000 0 13697032.362 -8180280.172 19929343.354 10 0 59953 72900.00000 0 16040225.331 -8091180.862 18137018.898 10 0 59953 73800.00000 0 18141767.588 -8172035.374 15993270.042 10 0 59953 74700.00000 0 19949946.306 -8386444.852 13539605.257 10 0 59953 75600.00000 0 21422776.429 -8689827.598 10823535.234 10 0 59953 76500.00000 0 22529575.366 -9031473.999 7897661.948 10 0 59953 77400.00000 0 23252081.960 -9356871.434 4818668.703 10 0 59953 78300.00000 0 23585073.405 -9610201.549 1646229.819 10 0 59953 79200.00000 0 23536454.293 -9736904.841 -1558139.627 10 0 59953 80100.00000 0 23126813.929 -9686204.309 -4732272.124 10 0 59953 81000.00000 0 22388470.101 -9413481.322 -7814551.330 10 0 59953 81900.00000 0 21364039.041 -8882402.657 -10745107.676 10 0 59953 82800.00000 0 20104591.209 -8066707.898 -13466982.536 10 0 59953 83700.00000 0 18667469.978 -6951580.299 -15927238.111 10 0 59953 84600.00000 0 17113864.619 -5534541.589 -18077991.156 10 0 59953 85500.00000 0 15506239.355 -3825831.098 -19877349.987 10 0 59954 0.00000 0 13905726.616 -1848251.315 -21290236.098 10 0 59954 900.00000 0 12369593.107 363516.878 -22289074.678 10 0 59954 1800.00000 0 10948887.422 2764099.876 -22854338.368 10 0 59954 2700.00000 0 9686365.216 5299073.693 -22974935.777 10 0 59954 3600.00000 0 8614781.377 7906993.261 -22648434.776 10 0 59954 4500.00000 0 7755620.152 10521726.132 -21881116.545 10 0 59954 5400.00000 0 7118316.751 13074993.802 -20687858.695 10 0 59954 6300.00000 0 6700002.971 15499015.159 -19091849.252 10 0 59954 7200.00000 0 6485787.272 17729141.731 -17124136.656 10 0 59954 8100.00000 0 6449556.954 19706374.713 -14823024.277 10 0 59954 9000.00000 0 6555267.840 21379658.347 -12233321.091 10 0 59954 9900.00000 0 6758666.072 22707853.483 -9405463.329 10 0 59954 10800.00000 0 7009368.063 23661308.625 -6394524.567 10 0 59954 11700.00000 0 7253209.306 24222962.756 -3259134.205 10 0 59954 12600.00000 0 7434761.248 24388934.083 -60326.337 10 0 59954 13500.00000 0 7499908.275 24168570.789 3139657.551 10 0 59954 14400.00000 0 7398374.409 23583962.777 6278587.730 10 0 59954 15300.00000 0 7086091.662 22668936.270 9295462.410 10 0 59954 16200.00000 0 6527309.026 21467575.051 12131696.565 10 0 59954 17100.00000 0 5696352.353 20032331.940 14732259.827 10 0 59954 18000.00000 0 4578960.528 18421811.177 17046741.158 10 0 59954 18900.00000 0 3173141.497 16698315.758 19030319.968 10 0 59954 19800.00000 0 1489512.041 14925263.121 20644625.536 10 0 59954 20700.00000 0 -448892.941 13164577.521 21858469.001 10 0 59954 21600.00000 0 -2607333.865 11474167.710 22648435.011 10 0 59954 22500.00000 0 -4940573.154 9905594.416 22999322.877 10 0 59954 23400.00000 0 -7394525.412 8502023.750 22904429.870 10 0 59954 24300.00000 0 -9908283.261 7296550.402 22365672.326 10 0 59954 25200.00000 0 -12416435.712 6310958.888 21393542.912 10 0 59954 26100.00000 0 -14851584.008 5554972.982 20006905.319 10 0 59954 27000.00000 0 -17146951.866 5026023.193 18232630.352 10 0 59954 27900.00000 0 -19238983.158 4709540.839 16105080.094 10 0 59954 28800.00000 0 -21069820.311 4579765.577 13665449.469 10 0 59954 29700.00000 0 -22589561.550 4601032.061 10960977.071 10 0 59954 30600.00000 0 -23758203.831 4729481.514 8044039.504 10 0 59954 31500.00000 0 -24547190.988 4915126.317 4971145.848 10 0 59954 32400.00000 0 -24940502.713 5104180.863 1801850.813 10 0 59954 33300.00000 0 -24935238.761 5241560.528 -1402393.105 10 0 59954 34200.00000 0 -24541673.572 5273443.410 -4579422.606 10 0 59954 35100.00000 0 -23782778.524 5149786.395 -7667567.000 10 0 59954 36000.00000 0 -22693231.205 4826688.820 -10606844.743 10 0 59954 36900.00000 0 -21317952.620 4268503.013 -13340129.667 10 0 59954 37800.00000 0 -19710233.098 3449601.435 -15814264.005 10 0 59954 38700.00000 0 -17929524.993 2355724.277 -17981096.289 10 0 59954 39600.00000 0 -16038994.397 984848.985 -19798423.478 10 0 59954 40500.00000 0 -14102934.269 -652456.929 -21230818.652 10 0 59954 41400.00000 0 -12184147.244 -2533216.713 -22250327.793 10 0 59954 42300.00000 0 -10341407.787 -4622753.274 -22837021.644 10 0 59954 43200.00000 0 -8627110.025 -6875898.389 -22979391.521 10 0 59954 44100.00000 0 -7085199.770 -9238653.358 -22674580.918 10 0 59954 45000.00000 0 -5749477.461 -11650232.930 -21928447.879 10 0 59954 45900.00000 0 -4642343.004 -14045408.139 -20755456.474 10 0 59954 46800.00000 0 -3774034.922 -16357050.785 -19178398.944 10 0 59954 47700.00000 0 -3142395.360 -18518773.424 -17227953.557 10 0 59954 48600.00000 0 -2733170.176 -20467554.474 -14942086.475 10 0 59954 49500.00000 0 -2520830.538 -22146238.375 -12365309.144 10 0 59954 50400.00000 0 -2469880.350 -23505805.679 -9547805.856 10 0 59954 51300.00000 0 -2536592.945 -24507317.643 -6544448.838 10 0 59954 52200.00000 0 -2671102.164 -25123453.551 -3413720.691 10 0 59954 53100.00000 0 -2819757.822 -25339576.233 -216566.105 10 0 59954 54000.00000 0 -2927644.265 -25154281.413 2984803.788 10 0 59954 54900.00000 0 -2941153.903 -24579408.472 6128130.103 10 0 59954 55800.00000 0 -2810505.485 -23639513.163 9152323.139 10 0 59954 56700.00000 0 -2492099.467 -22370825.629 11998653.117 10 0 59954 57600.00000 0 -1950610.155 -20819738.790 14611891.108 10 0 59954 58500.00000 0 -1160725.790 -19040891.748 16941377.766 10 0 59954 59400.00000 0 -108462.974 -17094929.624 18941999.438 10 0 59954 60300.00000 0 1207999.966 -15046034.240 20575053.413 10 0 59954 61200.00000 0 2778005.653 -12959329.226 21808986.432 10 0 59954 62100.00000 0 4578629.706 -10898267.633 22619993.433 10 0 59954 63000.00000 0 6575413.549 -8922110.268 22992466.212 10 0 59954 63900.00000 0 8723587.649 -7083598.738 22919284.555 10 0 59954 64800.00000 0 10969734.931 -5426918.575 22401945.276 10 0 59954 65700.00000 0 13253825.986 -3986035.537 21450527.467 10 0 59954 66600.00000 0 15511542.486 -2783472.648 20083495.013 10 0 59954 67500.00000 0 17676793.465 -1829577.236 18327340.251 10 0 59954 68400.00000 0 19684321.174 -1122307.009 16216075.299 10 0 59954 69300.00000 0 21472289.279 -647542.978 13790580.269 10 0 59954 70200.00000 0 22984746.774 -379915.190 11097820.100 10 0 59954 71100.00000 0 24173865.791 -284106.143 8189944.160 10 0 59954 72000.00000 0 25001860.400 -316576.888 5123285.121 10 0 59954 72900.00000 0 25442506.493 -427643.164 1957275.593 10 0 59954 73800.00000 0 25482199.005 -563814.118 -1246697.248 10 0 59954 74700.00000 0 25120501.766 -670295.018 -4426477.237 10 0 59954 75600.00000 0 24370166.281 -693548.177 -7520342.329 10 0 59954 76500.00000 0 23256617.775 -583803.560 -10468201.972 10 0 59954 77400.00000 0 21816929.185 -297412.433 -13212765.291 10 0 59954 78300.00000 0 20098325.174 201056.337 -15700657.182 10 0 59954 79200.00000 0 18156278.084 937067.085 -17883460.332 10 0 59954 80100.00000 0 16052274.907 1924790.577 -19718662.422 10 0 59954 81000.00000 0 13851348.269 3166257.329 -21170489.803 10 0 59954 81900.00000 0 11619474.355 4651028.642 -22210610.981 10 0 59954 82800.00000 0 9420946.416 6356401.075 -22818695.818 10 0 59954 83700.00000 0 7315833.570 8248137.729 -22982819.148 10 0 59954 84600.00000 0 5357630.998 10281697.455 -22699700.525 10 0 59954 85500.00000 0 3591199.789 12403911.900 -21974774.898 10 0 59955 0.00000 0 2051082.562 14555041.199 -20822092.534 10 0 59955 900.00000 0 760264.271 16671124.183 -19264048.875 10 0 59955 1800.00000 0 -270568.236 18686522.178 -17330950.881 10 0 59955 2700.00000 0 -1043240.318 20536553.799 -15060425.888 10 0 59955 3600.00000 0 -1571767.108 22160107.196 -12496685.827 10 0 59955 4500.00000 0 -1881510.125 23502120.882 -9689660.735 10 0 59955 5400.00000 0 -2007849.771 24515828.376 -6694018.903 10 0 59955 6300.00000 0 -1994431.331 25164671.918 -3568093.322 10 0 59955 7200.00000 0 -1891060.288 25423804.516 -372736.313 10 0 59955 8100.00000 0 -1751337.730 25281117.149 2829874.386 10 0 59955 9000.00000 0 -1630137.593 24737748.197 5977453.773 10 0 59955 9900.00000 0 -1581033.980 23808054.257 9008827.192 10 0 59955 10800.00000 0 -1653788.708 22519044.413 11865122.922 10 0 59955 11700.00000 0 -1892006.239 20909302.702 14490916.089 10 0 59955 12600.00000 0 -2331055.673 19027445.055 16835301.419 10 0 59955 13500.00000 0 -2996347.774 16930176.289 18852874.332 10 0 59955 14400.00000 0 -3902039.666 14680029.116 20504601.985 10 0 59955 15300.00000 0 -5050221.584 12342879.987 21758568.292 10 0 59955 16200.00000 0 -6430619.664 9985345.290 22590579.735 10 0 59955 17100.00000 0 -8020827.247 7672165.739 22984621.515 10 0 59955 18000.00000 0 -9787055.079 5463686.875 22933156.451 10 0 59955 18900.00000 0 -11685369.524 3413538.989 22437261.949 10 0 59955 19800.00000 0 -13663367.769 1566611.219 21506603.168 10 0 59955 20700.00000 0 -15662221.070 -42597.676 20159243.346 10 0 59955 21600.00000 0 -17619002.038 -1391185.156 18421295.024 10 0 59955 22500.00000 0 -19469200.228 -2468558.829 16326418.552 10 0 59955 23400.00000 0 -21149322.341 -3276630.118 13915176.998 10 0 59955 24300.00000 0 -22599469.745 -3829480.775 11234259.054 10 0 59955 25200.00000 0 -23765786.598 -4152517.061 8335583.974 10 0 59955 26100.00000 0 -24602676.838 -4281147.540 5275304.954 10 0 59955 27000.00000 0 -25074697.545 -4259040.315 2112729.330 10 0 59955 27900.00000 0 -25158049.274 -4136033.186 -1090824.253 10 0 59955 28800.00000 0 -24841600.379 -3965784.751 -4273209.949 10 0 59955 29700.00000 0 -24127401.605 -3803265.691 -7372657.484 10 0 59955 30600.00000 0 -23030668.330 -3702196.337 -10328970.318 10 0 59955 31500.00000 0 -21579230.062 -3712539.161 -13084695.738 10 0 59955 32400.00000 0 -19812469.084 -3878152.824 -15586243.966 10 0 59955 33300.00000 0 -17779791.564 -4234707.788 -17784934.202 10 0 59955 34200.00000 0 -15538694.176 -4807952.696 -19637946.846 10 0 59955 35100.00000 0 -13152506.274 -5612406.118 -21109163.036 10 0 59955 36000.00000 0 -10687901.291 -6650530.422 -22169874.777 10 0 59955 36900.00000 0 -8212280.940 -7912424.298 -22799351.437 10 0 59955 37800.00000 0 -5791141.061 -9376048.614 -22985251.171 10 0 59955 38700.00000 0 -3485528.809 -11007977.835 -22723868.822 10 0 59955 39600.00000 0 -1349697.256 -12764646.909 -22020214.984 10 0 59955 40500.00000 0 570944.883 -14594042.531 -20887924.181 10 0 59955 41400.00000 0 2241503.020 -16437768.775 -19348993.439 10 0 59955 42300.00000 0 3638816.413 -18233400.890 -17433355.928 10 0 59955 43200.00000 0 4752177.438 -19917028.660 -15178297.655 10 0 59955 44100.00000 0 5583521.083 -21425882.402 -12627728.403 10 0 59955 45000.00000 0 6147077.764 -22700930.768 -9831321.264 10 0 59955 45900.00000 0 6468505.514 -23689340.601 -6843537.876 10 0 59955 46800.00000 0 6583539.697 -24346694.730 -3722558.946 10 0 59955 47700.00000 0 6536219.011 -24638873.777 -529141.822 10 0 59955 48600.00000 0 6376764.577 -24543522.425 2674571.647 10 0 59955 49500.00000 0 6159203.628 -24051038.281 5826272.709 10 0 59955 50400.00000 0 5938839.974 -23165041.917 8864703.968 10 0 59955 51300.00000 0 5769679.693 -21902308.776 11730853.806 10 0 59955 52200.00000 0 5701922.001 -20292166.447 14369103.254 10 0 59955 53100.00000 0 5779622.055 -18375383.442 16728302.731 10 0 59955 54000.00000 0 6038624.703 -16202596.752 18762758.096 10 0 59955 54900.00000 0 6504856.337 -13832344.577 20433107.453 10 0 59955 55800.00000 0 7193046.529 -11328786.737 21707072.656 10 0 59955 56700.00000 0 8105932.877 -8759207.769 22560072.177 10 0 59955 57600.00000 0 9233982.116 -6191406.126 22975684.745 10 0 59955 58500.00000 0 10555638.992 -3691077.218 22945956.039 10 0 59955 59400.00000 0 12038092.520 -1319297.672 22471543.594 10 0 59955 60300.00000 0 13638527.948 869786.362 21561697.936 10 0 59955 61200.00000 0 15305812.714 2830972.567 20234080.739 10 0 59955 62100.00000 0 16982546.855 4529635.762 18514423.640 10 0 59955 63000.00000 0 18607393.363 5942915.031 16436033.939 10 0 59955 63900.00000 0 20117592.216 7060406.795 14039156.198 10 0 59955 64800.00000 0 21451554.142 7884336.361 11370201.212 10 0 59955 65700.00000 0 22551426.586 8429201.777 8480856.278 10 0 59955 66600.00000 0 23365525.072 8720905.643 5427093.067 10 0 59955 67500.00000 0 23850528.474 8795411.769 2268091.392 10 0 59955 68400.00000 0 23973346.039 8696983.330 -934901.048 10 0 59955 69300.00000 0 23712577.377 8476076.806 -4119751.265 10 0 59955 70200.00000 0 23059503.334 8186980.493 -7224643.329 10 0 59955 71100.00000 0 22018565.008 7885297.377 -10189277.245 10 0 59955 72000.00000 0 20607309.505 7625378.806 -12956040.885 10 0 59955 72900.00000 0 18855803.269 7457817.839 -15471132.030 10 0 59955 73800.00000 0 16805536.112 7427108.729 -17685608.425 10 0 59955 74700.00000 0 14507860.517 7569572.278 -19556344.976 10 0 59955 75600.00000 0 12022030.276 7911635.683 -21046879.162 10 0 59955 76500.00000 0 9412919.387 8468540.758 -22128127.820 10 0 59955 77400.00000 0 6748515.717 9243536.331 -22778960.912 10 0 59955 78300.00000 0 4097293.372 10227590.359 -22986620.730 10 0 59955 79200.00000 0 1525572.931 11399635.322 -22746977.930 10 0 59955 80100.00000 0 -905020.637 12727337.931 -22064618.909 10 0 59955 81000.00000 0 -3139896.577 14168361.947 -20952762.328 10 0 59955 81900.00000 0 -5133536.193 15672071.955 -19433005.919 10 0 59955 82800.00000 0 -6851145.025 17181607.002 -17534908.055 10 0 59955 83700.00000 0 -8269850.822 18636237.131 -15295411.910 10 0 59955 84600.00000 0 -9379397.827 19973903.588 -12758123.250 10 0 59955 85500.00000 0 -10182309.169 21133835.327 -9972456.044 10 0 59956 0.00000 0 -10693511.783 22059130.931 -6992663.130 10 0 59956 900.00000 0 -10939441.371 22699196.867 -3876769.781 10 0 59956 1800.00000 0 -10956666.191 23011937.353 -685435.909 10 0 59956 2700.00000 0 -10790090.570 22965604.538 2519235.327 10 0 59956 3600.00000 0 -10490815.143 22540229.271 5674914.237 10 0 59956 4500.00000 0 -10113746.387 21728572.539 8720263.466 10 0 59956 5400.00000 0 -9715058.061 20536557.543 11596134.207 10 0 59956 6300.00000 0 -9349613.104 18983164.528 14246715.971 10 0 59956 7200.00000 0 -9068455.803 17099793.331 16620617.310 10 0 59956 8100.00000 0 -8916480.542 14929120.885 18671856.756 10 0 59956 9000.00000 0 -8930375.498 12523501.944 20360745.376 10 0 59956 9900.00000 0 -9136927.591 9942980.137 21654644.718 10 0 59956 10800.00000 0 -9551759.505 7252992.215 22528586.695 10 0 59956 11700.00000 0 -10178551.217 4521860.610 22965744.679 10 0 59956 12600.00000 0 -11008778.169 1818177.786 22957747.937 10 0 59956 13500.00000 0 -12021976.655 -791810.228 22504834.442 10 0 59956 14400.00000 0 -13186525.263 -3246714.093 21615839.935 10 0 59956 15300.00000 0 -14460909.812 -5492302.697 20308023.896 10 0 59956 16200.00000 0 -15795419.432 -7483502.319 18606735.940 10 0 59956 17100.00000 0 -17134203.605 -9186012.228 16544928.728 10 0 59956 18000.00000 0 -18417604.996 -10577471.131 14162526.296 10 0 59956 18900.00000 0 -19584671.438 -11648127.372 11505659.141 10 0 59956 19800.00000 0 -20575742.718 -12400986.129 8625779.889 10 0 59956 20700.00000 0 -21335004.425 -12851428.214 5578675.738 10 0 59956 21600.00000 0 -21812902.090 -13026317.085 2423395.871 10 0 59956 22500.00000 0 -21968314.306 -12962631.838 -778886.159 10 0 59956 23400.00000 0 -21770393.141 -12705683.757 -3966053.454 10 0 59956 24300.00000 0 -21199993.738 -12306991.564 -7076247.668 10 0 59956 25200.00000 0 -20250631.881 -11821904.937 -10049068.532 10 0 59956 26100.00000 0 -18928927.928 -11307076.636 -12826747.583 10 0 59956 27000.00000 0 -17254516.850 -10817890.126 -15355273.072 10 0 59956 27900.00000 0 -15259426.461 -10405951.679 -17585443.938 10 0 59956 28800.00000 0 -12986948.266 -10116753.355 -19473831.890 10 0 59956 29700.00000 0 -10490046.617 -9987606.252 -20983632.589 10 0 59956 30600.00000 0 -7829371.265 -10045932.108 -22085388.997 10 0 59956 31500.00000 0 -5070955.208 -10307986.320 -22757572.359 10 0 59956 32400.00000 0 -2283692.911 -10778067.350 -22987009.179 10 0 59956 33300.00000 0 463296.676 -11448246.950 -22769145.398 10 0 59956 34200.00000 0 3103312.808 -12298633.678 -22108142.136 10 0 59956 35100.00000 0 5574611.586 -13298159.579 -21016800.661 10 0 59956 36000.00000 0 7822734.955 -14405857.709 -19516317.473 10 0 59956 36900.00000 0 9802533.055 -15572577.186 -17635873.885 10 0 59956 37800.00000 0 11479795.805 -16743063.769 -15412067.714 10 0 59956 38700.00000 0 12832425.991 -17858318.150 -12888197.955 10 0 59956 39600.00000 0 13851105.354 -18858132.120 -10113416.513 10 0 59956 40500.00000 0 14539426.779 -19683694.951 -7141763.806 10 0 59956 41400.00000 0 14913488.337 -20280159.180 -4031107.598 10 0 59956 42300.00000 0 15000967.781 -20599056.574 -842006.657 10 0 59956 43200.00000 0 14839718.302 -20600461.460 2363477.659 10 0 59956 44100.00000 0 14475946.684 -20254809.371 5522997.703 10 0 59956 45000.00000 0 13962052.595 -19544293.858 8575138.922 10 0 59956 45900.00000 0 13354222.033 -18463782.325 11460617.794 10 0 59956 46800.00000 0 12709877.957 -17021212.364 14123434.456 10 0 59956 47700.00000 0 12085096.812 -15237452.149 16511957.344 10 0 59956 48600.00000 0 11532100.539 -13145631.053 18579919.014 10 0 59956 49500.00000 0 11096929.917 -10789968.767 20287304.429 10 0 59956 50400.00000 0 10817396.957 -8224152.125 21601115.349 10 0 59956 51300.00000 0 10721401.821 -5509327.186 22495997.242 10 0 59956 52200.00000 0 10825684.186 -2711789.817 22954717.853 10 0 59956 53100.00000 0 11135060.565 99529.917 22968489.408 10 0 59956 54000.00000 0 11642178.770 2855686.220 22537129.383 10 0 59956 54900.00000 0 12327799.258 5490331.698 21669057.520 10 0 59956 55800.00000 0 13161591.241 7942220.276 20381129.675 10 0 59956 56700.00000 0 14103410.319 10157496.900 18698311.817 10 0 59956 57600.00000 0 15105004.476 12091680.740 16653200.195 10 0 59956 58500.00000 0 16112077.554 13711261.132 14285396.407 10 0 59956 59400.00000 0 17066624.516 14994841.316 11640748.621 10 0 59956 60300.00000 0 17909441.283 15933783.556 8770472.649 10 0 59956 61200.00000 0 18582704.485 16532329.527 5730168.959 10 0 59956 62100.00000 0 19032513.176 16807191.596 2578753.756 10 0 59956 63000.00000 0 19211285.806 16786632.463 -622675.961 10 0 59956 63900.00000 0 19079911.364 16509071.920 -3812021.814 10 0 59956 64800.00000 0 18609563.545 16021279.320 -6927385.402 10 0 59956 65700.00000 0 17783100.544 15376227.797 -9908268.446 10 0 59956 66600.00000 0 16595990.242 14630700.591 -12696748.230 10 0 59956 67500.00000 0 15056720.225 13842750.429 -15238605.358 10 0 59956 68400.00000 0 13186673.587 13069119.254 -17484381.613 10 0 59956 69300.00000 0 11019473.869 12362727.408 -19390346.928 10 0 59956 70200.00000 0 8599824.716 11770338.614 -20919356.365 10 0 59956 71100.00000 0 5981891.053 11330499.735 -22041580.012 10 0 59956 72000.00000 0 3227287.960 11071842.878 -22735091.208 10 0 59956 72900.00000 0 402759.906 11011822.129 -22986301.249 10 0 59956 73800.00000 0 -2422353.911 11155938.943 -22790231.663 10 0 59956 74700.00000 0 -5178763.098 11497489.605 -22150618.284 10 0 59956 75600.00000 0 -7799868.853 12017846.073 -21079844.570 10 0 59956 76500.00000 0 -10224296.181 12687258.957 -19598704.985 10 0 59956 77400.00000 0 -12398210.044 13466149.112 -17736002.555 10 0 59956 78300.00000 0 -14277318.999 14306833.471 -15527988.125 10 0 59956 79200.00000 0 -15828482.891 15155612.158 -13017651.997 10 0 59956 80100.00000 0 -17030857.659 15955128.258 -10253881.839 10 0 59956 81000.00000 0 -17876530.023 16646899.885 -7290503.579 10 0 59956 81900.00000 0 -18370616.402 17173916.628 -4185224.482 10 0 59956 82800.00000 0 -18530823.130 17483189.610 -998499.933 10 0 59956 83700.00000 0 -18386488.087 17528146.353 2207653.041 10 0 59956 84600.00000 0 -17977145.864 17270768.317 5370871.370 10 0 59956 85500.00000 0 -17350678.787 16683380.094 8429665.825 99